Regional Weather Roundup
Issued by NWS Goodland, KS

Home | Current Version | Previous Version | Graphics & Text | Print | Product List | Glossary On
Versions: 1 2 3 4 5 6 7 8 9 10 11 12 13 14 15 16 17 18 19 20 21 22 23 24 25 26 27 28 29 30 31 32 33 34 35 36 37 38 39 40 41 42 43 44 45 46 47 48 49 50
000
ASUS43 KGLD 200959
RWRGLD

GOODLAND FORECAST AREA HOURLY WEATHER ROUNDUP
NATIONAL WEATHER SERVICE GOODLAND KS
400 AM MDT FRI OCT 20 2017

...OFFICIAL OBSERVATIONS...

CITY           SKY/WX    TMP DP  RH WIND       PRES   REMARKS
GOODLAND KS    MOCLDY    53  47  79 S15       29.81F
HILL CITY KS   FAIR      59  47  64 S13G25    29.87F
IMPERIAL NEB   MOCLDY    55  45  68 S10       29.77F
MCCOOK NEB     MOCLDY    57  47  69 S10       29.81F
AKRON CO       MOCLDY    51  40  65 S9        29.77F
BURLINGTON CO  PTCLDY    50  47  89 S14       29.80F
LIMON CO       MOCLDY    32  32 100 CALM      29.83F FOG
$$

...UNOFFICIAL OBSERVATIONS...

CITY           SKY/WX    TMP DP  RH WIND       PRES   REMARKS
NORTON KS      CLEAR     57  43  58 S13       29.84
SHARON SPRINGS   N/A     54  49  82 S13G20      N/A
TRENTON NEB      N/A     55  32  41 S7          N/A
YUMA CO        FAIR      41  41 100 W5        29.78S
$$




USA.gov is the U.S. government's official web portal to all federal, state and local government web resources and services.